Location: Zagreb
(45.8000°N, 16.0000°E)
Time: 00:54:27
(UTC+02:00)

Transit 2A Rocket - Pass Details

Date: 24 January 2022
Orbit: 592 x 909 km, 66.7° (Epoch: 26 May)

Event Time Altitude Azimuth Distance (km) Brightness Sun altitude
Rises 05:25:18 0° 312° (NW) 3,398 - -21.0°
Reaches altitude 10° 05:28:54 10° 290° (WNW) 2,393 - -20.4°
Maximum altitude 05:31:50 15° 258° (WSW) 2,015 - -19.8°
Drops below altitude 10° 05:34:39 10° 225° (SW) 2,268 - -19.4°
Exits shadow 05:36:11 - 212° (SSW) 2,616 7.5 -19.1°
Sets 05:37:55 0° 202° (SSW) 3,112 8.0 -18.8°
